Weather reports worldwide

Advertisment
Charlwood, United Kingdom (3769): temperature & dewpoint: 15.05.2019 16:00:00 - 21.05.2019 16:00:00 (BST)Charlwood, United Kingdom (3769): temperature -20cm & temperature -100cm: 15.05.2019 16:00:00 - 21.05.2019 16:00:00 (BST)Charlwood, United Kingdom (3769): wind speed: 15.05.2019 16:00:00 - 21.05.2019 16:00:00 (BST)Charlwood, United Kingdom (3769): wind direction: 15.05.2019 16:00:00 - 21.05.2019 16:00:00 (BST)Charlwood, United Kingdom (3769): reduced air pressure: 15.05.2019 16:00:00 - 21.05.2019 16:00:00 (BST)Charlwood, United Kingdom (3769): visibility: 15.05.2019 16:00:00 - 21.05.2019 16:00:00 (BST)Charlwood, United Kingdom (3769): sunshine duration: 15.05.2019 16:00:00 - 21.05.2019 16:00:00 (BST)Charlwood, United Kingdom (3769): precipitation: 15.05.2019 16:00:00 - 21.05.2019 16:00:00 (BST)
Date & Time tt [°C] td [°C] tt -20cm [°C] tt -100cm [°C] ff [km/h] ff [kn] dd ppp [hPa] vv [km] sd [min] rr [mm]
21.05.2019 16:00:00 20,9 6,3 - - 8 4 N 1018,0 26 48 0,0
21.05.2019 15:00:00 18,8 4,3 - - 8 4 N 1018,3 45 42 0,0
21.05.2019 14:00:00 19,8 3,8 - - 11 6 N 1018,2 45 60 0,0
21.05.2019 13:00:00 18,7 3,6 - - 9 5 N 1018,2 35 60 0,0
21.05.2019 12:00:00 17,8 4,2 - - 9 5 N 1018,2 35 60 0,0
21.05.2019 11:00:00 17,3 5,5 - - 8 4 NNW 1018,1 35 60 0,0
21.05.2019 10:00:00 15,5 7,2 14,0 11,2 9 5 N 1018,3 45 60 0,0
21.05.2019 09:00:00 14,4 7,2 - - 11 6 N 1018,2 45 60 0,0
21.05.2019 08:00:00 12,7 7,6 - - 8 4 N 1017,9 21 60 0,0
21.05.2019 07:00:00 11,6 7,2 - - 4 2 NE 1017,3 35 30 0,0
21.05.2019 06:00:00 9,6 6,6 - - 5 3 NW 1016,8 30 0 0,0
21.05.2019 05:00:00 9,4 6,4 - - 4 2 N 1016,5 28 0 0,0
21.05.2019 04:00:00 10,2 6,9 - - 5 3 N 1016,2 35 0 0,0
21.05.2019 03:00:00 10,9 7,0 - - 5 3 NNW 1015,9 35 0 0,0
21.05.2019 02:00:00 11,7 7,3 - - 8 4 NW 1015,6 40 0 0,0
21.05.2019 01:00:00 10,0 6,7 - - 2 1 WNW 1015,5 40 - 0,0
21.05.2019 00:00:00 12,3 8,2 - - 4 2 WNW 1015,4 50 0 0,0
20.05.2019 23:00:00 11,4 8,0 - - 2 1 WNW 1015,2 45 0 0,0
20.05.2019 22:00:00 13,9 8,6 - - 4 2 W 1014,6 50 0 0,0
20.05.2019 21:00:00 15,8 7,9 - - 4 2 WNW 1014,0 50 0 0,0
20.05.2019 20:00:00 16,4 8,5 - - 4 2 WNW 1013,5 50 0 0,0
20.05.2019 19:00:00 16,9 8,6 - - 4 2 WNW 1013,2 50 0 0,0
20.05.2019 18:00:00 18,2 8,2 - - 4 2 NNW 1012,9 45 0 0,0
20.05.2019 17:00:00 18,7 8,4 - - 8 4 N 1012,8 50 0 0,0
20.05.2019 16:00:00 18,4 8,7 - - 5 3 N 1012,8 40 0 0,0
20.05.2019 15:00:00 18,0 9,7 - - 4 2 ENE 1012,7 23 0 0,0
20.05.2019 14:00:00 17,1 10,2 - - 5 3 N 1012,7 24 6 0,0
20.05.2019 13:00:00 17,2 9,7 - - 8 4 N 1012,6 22 0 0,0
20.05.2019 12:00:00 17,0 9,4 - - 8 4 NW 1012,4 20 18 0,0
20.05.2019 11:00:00 16,6 10,3 - - 5 3 N 1012,2 14 18 0,0
20.05.2019 10:00:00 16,5 10,8 13,9 11,2 9 5 NNE 1012,2 12 54 0,0
20.05.2019 09:00:00 14,5 10,6 - - 8 4 NNW 1012,2 10 18 0,0
20.05.2019 08:00:00 12,9 11,0 - - 5 3 NNW 1011,8 7 0 0,0
20.05.2019 07:00:00 11,4 10,7 - - 2 1 N 1011,4 3,7 0 0,0
20.05.2019 06:00:00 10,4 9,6 - - 2 1 NNW 1011,0 3,7 0 0,0
20.05.2019 05:00:00 10,2 9,4 - - 2 1 NNW 1010,9 3,6 0 0,0
20.05.2019 04:00:00 10,1 9,0 - - 4 2 WNW 1010,8 3,3 0 0,0
20.05.2019 03:00:00 10,6 8,8 - - 0 0 N 1010,7 5 0 0,0
20.05.2019 02:00:00 11,5 9,5 - - 4 2 NE 1010,8 8 0 0,0
20.05.2019 01:00:00 11,1 10,3 - - 2 1 NNW 1010,8 10 - 0,0
20.05.2019 00:00:00 10,7 9,9 - - 4 2 W 1010,9 3,1 0 0,0
19.05.2019 23:00:00 10,4 9,2 - - 0 0 N 1010,8 2,6 0 0,0
19.05.2019 22:00:00 12,2 10,3 - - 4 2 SSW 1010,7 4,0 0 0,0
19.05.2019 21:00:00 13,0 10,7 - - 5 3 SW 1010,4 9 0 0,0
19.05.2019 20:00:00 14,6 11,1 - - 4 2 W 1009,8 12 0 0,0
19.05.2019 19:00:00 15,4 10,9 - - 2 1 W 1009,5 12 0 0,0
19.05.2019 18:00:00 15,3 10,7 - - 2 1 WNW 1009,5 15 0 0,0
19.05.2019 17:00:00 15,2 11,1 - - 2 1 NW 1009,6 13 0 0,0
19.05.2019 16:00:00 14,7 11,0 - - 2 1 NW 1009,7 9 0 0,0
19.05.2019 15:00:00 14,7 11,0 - - 5 3 NNW 1009,7 10 0 0,0
19.05.2019 14:00:00 15,8 9,9 - - 5 3 N 1009,7 8 0 0,0
19.05.2019 13:00:00 16,3 10,6 - - 4 2 NNE 1009,8 8 6 0,0
19.05.2019 12:00:00 14,8 10,6 - - 4 2 N 1009,7 5 0 0,0
19.05.2019 11:00:00 14,3 11,1 - - 5 3 N 1009,6 4,8 0 0,0
19.05.2019 10:00:00 12,5 11,9 13,9 11,2 4 2 NNW 1009,5 2,3 0 0,0
19.05.2019 09:00:00 11,6 11,2 - - 2 1 N 1009,2 1,9 0 0,4
19.05.2019 08:00:00 10,3 9,9 - - 4 2 NNE 1009,0 2,6 0 0,0
19.05.2019 07:00:00 9,6 9,2 - - 2 1 NW 1008,8 3,2 0 0,0
19.05.2019 06:00:00 8,1 7,6 - - 2 1 NNW 1008,7 3,0 0 0,0
19.05.2019 05:00:00 7,9 7,5 - - 2 1 SW 1008,5 3,0 0 0,0
19.05.2019 04:00:00 7,2 6,6 - - 2 1 W 1008,4 3,0 0 0,0
19.05.2019 03:00:00 6,3 5,7 - - 2 1 W 1008,4 3,0 0 0,0
19.05.2019 02:00:00 6,4 5,7 - - 2 1 NW 1008,3 3,9 0 0,0
19.05.2019 01:00:00 6,7 5,7 - - 2 1 W 1008,4 3,6 - 0,0
19.05.2019 00:00:00 8,1 6,9 - - 2 1 NNW 1008,4 6 0 0,0
18.05.2019 23:00:00 9,6 7,8 - - 2 1 ENE 1008,4 9 0 0,0
18.05.2019 22:00:00 12,2 8,4 - - 5 3 N 1008,1 16 0 0,0
18.05.2019 21:00:00 13,8 8,4 - - 4 2 WNW 1007,5 18 0 0,0
18.05.2019 20:00:00 14,9 8,0 - - 4 2 WSW 1007,3 22 12 0,0
18.05.2019 19:00:00 17,5 6,9 - - 2 1 W 1006,7 18 48 0,0
18.05.2019 18:00:00 16,7 8,4 - - 4 2 W 1006,4 25 12 0,0
18.05.2019 17:00:00 17,0 7,7 - - 4 2 SE 1006,2 20 0 0,0
18.05.2019 16:00:00 16,2 8,4 - - 5 3 SSW 1006,3 15 0 0,0
18.05.2019 15:00:00 16,4 9,1 - - 4 2 SSW 1006,1 15 6 0,0
18.05.2019 14:00:00 16,5 8,0 - - 4 2 W 1006,1 13 6 0,0
18.05.2019 13:00:00 17,8 8,7 - - 5 3 S 1005,9 18 24 0,0
18.05.2019 12:00:00 16,7 9,2 - - 8 4 SE 1006,3 13 18 0,0
18.05.2019 11:00:00 14,2 8,2 - - 8 4 ESE 1006,4 13 0 0,0
18.05.2019 10:00:00 13,6 7,9 13,7 11,0 4 2 NE 1006,2 10 0 0,0
18.05.2019 09:00:00 12,4 8,3 - - 8 4 NE 1006,2 9 30 0,0
18.05.2019 08:00:00 10,8 9,8 - - 5 3 NE 1006,0 6 24 0,0
18.05.2019 07:00:00 8,9 8,4 - - 4 2 N 1005,8 2,8 0 0,0
18.05.2019 06:00:00 7,0 6,5 - - 2 1 W 1005,9 1,8 0 0,0
18.05.2019 05:00:00 6,1 5,5 - - 4 2 N 1005,7 1,4 0 0,0
18.05.2019 04:00:00 6,0 5,3 - - 2 1 W 1006,0 2,0 0 0,0
18.05.2019 03:00:00 6,3 5,4 - - 2 1 N 1006,4 2,5 0 0,0
18.05.2019 02:00:00 6,8 5,7 - - 2 1 NW 1006,5 2,5 0 0,0
18.05.2019 01:00:00 8,6 6,9 - - 2 1 NNW 1006,6 6 - 0,0
18.05.2019 00:00:00 8,9 7,2 - - 4 2 NNE 1006,9 9 0 0,0
17.05.2019 23:00:00 9,3 6,5 - - 9 5 NE 1007,0 11 0 0,0
17.05.2019 22:00:00 10,5 7,1 - - 8 4 NE 1007,0 15 0 0,0
17.05.2019 21:00:00 11,1 7,5 - - 5 3 N 1006,8 16 0 0,0
17.05.2019 20:00:00 11,9 7,5 - - 11 6 NE 1006,8 18 0 0,0
17.05.2019 19:00:00 12,4 8,4 - - 11 6 ENE 1006,6 14 0 0,0
17.05.2019 18:00:00 12,5 8,8 - - 13 7 NE 1006,9 25 0 0,0
17.05.2019 17:00:00 12,8 8,6 - - 11 6 NE 1007,0 22 0 0,0
17.05.2019 16:00:00 13,5 8,4 - - 15 8 NE 1007,3 21 0 0,0
17.05.2019 15:00:00 13,9 8,9 - - 15 8 NE 1007,5 22 0 0,0
17.05.2019 14:00:00 13,5 7,9 - - 15 8 ENE 1007,7 24 0 0,0
17.05.2019 13:00:00 13,0 8,6 - - 15 8 E 1007,9 16 0 0,0
17.05.2019 12:00:00 11,8 8,8 - - 13 7 NNE 1008,1 16 0 0,0
17.05.2019 11:00:00 11,9 8,5 - - 16 9 NNE 1008,1 18 0 0,0
17.05.2019 10:00:00 11,4 8,4 14,0 11,0 11 6 NNE 1008,4 14 0 0,0
17.05.2019 09:00:00 11,4 7,8 - - 15 8 NNE 1008,6 17 0 0,0
17.05.2019 08:00:00 11,2 7,7 - - 15 8 NNE 1009,1 27 0 0,0
17.05.2019 07:00:00 10,1 7,0 - - 11 6 NNE 1009,7 25 0 0,0
17.05.2019 06:00:00 9,6 6,9 - - 9 5 NNE 1010,0 16 0 0,0
17.05.2019 05:00:00 8,9 6,8 - - 8 4 NNE 1010,3 14 0 0,0
17.05.2019 04:00:00 8,3 6,2 - - 8 4 N 1010,9 12 0 0,0
17.05.2019 03:00:00 7,8 6,2 - - 5 3 N 1011,3 11 0 0,0
17.05.2019 02:00:00 7,7 5,6 - - 9 5 NNE 1012,3 14 0 0,0
17.05.2019 01:00:00 7,8 5,1 - - 9 5 NNE 1013,0 26 - 0,0
17.05.2019 00:00:00 7,6 5,0 - - 11 6 NNE 1013,6 23 0 0,0
16.05.2019 23:00:00 8,1 5,2 - - 11 6 NNE 1014,5 23 0 0,0
16.05.2019 22:00:00 8,8 4,5 - - 11 6 NE 1015,0 35 0 0,0
16.05.2019 21:00:00 9,5 2,0 - - 9 5 NNE 1015,1 50 0 0,0
16.05.2019 20:00:00 11,7 2,0 - - 16 9 ENE 1015,2 45 54 0,0
16.05.2019 19:00:00 13,0 1,7 - - 21 11 NE 1015,4 35 60 0,0
16.05.2019 18:00:00 14,1 0,7 - - 22 12 NE 1015,7 35 60 0,0
16.05.2019 17:00:00 15,2 1,6 - - 22 12 NE 1016,2 45 60 0,0
16.05.2019 16:00:00 16,1 2,9 - - 24 13 E 1016,4 30 60 0,0
16.05.2019 15:00:00 16,2 2,0 - - 26 14 ENE 1017,2 50 60 0,0
16.05.2019 14:00:00 17,1 4,0 - - 21 11 ENE 1017,8 40 30 0,0
16.05.2019 13:00:00 16,5 5,4 - - 16 9 ENE 1018,4 40 36 0,0
16.05.2019 12:00:00 17,2 4,3 - - 18 10 E 1018,9 30 54 0,0
16.05.2019 11:00:00 16,1 5,3 - - 21 11 E 1019,4 35 60 0,0
16.05.2019 10:00:00 15,4 6,4 14,0 11,0 15 8 E 1019,9 23 60 0,0
16.05.2019 09:00:00 13,9 7,3 - - 15 8 E 1020,4 19 60 0,0
16.05.2019 08:00:00 10,7 8,0 - - 8 4 NE 1020,5 11 60 0,0
16.05.2019 07:00:00 7,5 7,1 - - 4 2 NE 1020,8 7 30 0,0
16.05.2019 06:00:00 3,3 2,5 - - 2 1 NNW 1020,9 2,4 0 0,0
16.05.2019 05:00:00 3,7 2,9 - - 4 2 N 1020,9 2,7 0 0,0
16.05.2019 04:00:00 4,6 3,5 - - 5 3 NNE 1021,2 4,3 0 0,0
16.05.2019 03:00:00 5,4 4,1 - - 5 3 NNE 1021,7 7 0 0,0
16.05.2019 02:00:00 5,7 3,9 - - 5 3 N 1022,5 9 0 0,0
16.05.2019 01:00:00 6,9 4,6 - - 8 4 NNE 1022,9 13 - 0,0
16.05.2019 00:00:00 8,2 3,6 - - 9 5 NE 1023,4 19 0 0,0
15.05.2019 23:00:00 8,8 3,5 - - 8 4 ENE 1023,7 20 0 0,0
15.05.2019 22:00:00 10,2 3,1 - - 9 5 ENE 1023,7 23 0 0,0
15.05.2019 21:00:00 12,1 3,8 - - 15 8 ENE 1023,6 26 0 0,0
15.05.2019 20:00:00 13,6 3,3 - - 11 6 ENE 1023,6 35 24 0,0
15.05.2019 19:00:00 15,6 2,0 - - 18 10 E 1023,6 50 60 0,0
15.05.2019 18:00:00 17,6 5,4 - - 15 8 ENE 1023,6 20 60 0,0
15.05.2019 17:00:00 18,1 7,0 - - 13 7 E 1023,7 35 60 0,0
15.05.2019 16:00:00 18,4 6,5 - - 13 7 E 1024,0 27 60 0,0

tt = temperature
td = dewpoint
tt -20cm = temperature -20cm
tt -100cm = temperature -100cm
ff = wind speed
dd = wind direction
ppp = reduced air pressure
vv = visibility
sd = sunshine duration
rr = precipitation

Next stations